Weather History for Hurlburt Field, FL

Change the Weather History Date:

Monday, November 4, 2013

  Actual Average Record
Temperature  
Mean Temperature 63 °F -  
Max Temperature 75 °F 72 °F 82 °F (2001)
Min Temperature 51 °F 53 °F 33 °F (1999)
Degree Days  
Heating Degree Days 2    
Growing Degree Days 13 (Base 50)    
Moisture  
Dew Point 48 °F    
Average Humidity 54    
Maximum Humidity 73    
Minimum Humidity 41    
Precipitation  
Precipitation 0.00 in - - ()
Sea Level Pressure  
Sea Level Pressure 30.23 in    
Wind  
Wind Speed 9 mph (East)    
Max Wind Speed 15 mph    
Max Gust Speed 23 mph    
Visibility 10 miles    
Events Rain    
Averages and records for this station are not official NWS values.
T = Trace of Precipitation, MM = Missing Value Source: NWS Daily Summary

Daily Weather History Graph

Daily Weather History Graph

Search for Another Location

Airport:

Trip Planner

Search our weather history database for the weather conditions in past years. The results will help you decide how hot, cold, wet, or windy it might be!

Date:

Astronomy

Nov. 04, 2013 Rise Set
Actual Time 6:03 AM CST 4:56 PM CST
Civil Twilight 5:38 AM CST 5:21 PM CST
Nautical Twilight 5:10 AM CST 5:49 PM CST
Astronomical Twilight 4:42 AM CST 6:18 PM CST
Moon 7:09 AM CST (11/4) 6:05 PM CST (11/4)
Length of Visible Light 11h 42m
Length of Day
10h 52m
New Moon, 2% of the Moon is Illuminated
Nov 4
New Moon
Nov 9
First Quarter
Nov 17
Full
Nov 25
Last Quarter
Dec 2
New

Hourly Weather History & Observations

Time (CST) Temp. Dew Point Humidity Pressure Visibility Wind Dir Wind Speed Gust Speed Precip Events Conditions
12:58 AM 52.0 °F 40.1 °F 64% 30.20 in 10.0 mi ENE 9.2 mph - N/A   Clear
1:58 AM 51.8 °F 40.8 °F 66% 30.20 in 10.0 mi ENE 8.1 mph - N/A   Clear
2:58 AM 52.7 °F 43.0 °F 70% 30.20 in 10.0 mi ENE 6.9 mph - N/A   Clear
3:58 AM 52.5 °F 44.1 °F 73% 30.20 in 10.0 mi ENE 8.1 mph - N/A   Clear
4:58 AM 57.9 °F 40.8 °F 53% 30.21 in 10.0 mi East 11.5 mph - N/A   Clear
5:58 AM 54.5 °F 45.5 °F 72% 30.22 in 10.0 mi NE 6.9 mph - N/A   Clear
6:58 AM 52.2 °F 42.1 °F 69% 30.25 in 10.0 mi NE 6.9 mph - N/A   Clear
7:58 AM 58.3 °F 41.9 °F 54% 30.27 in 10.0 mi East 11.5 mph - N/A   Clear
8:58 AM 62.8 °F 45.5 °F 53% 30.27 in 10.0 mi East 10.4 mph - N/A   Clear
9:47 AM 66.2 °F 46.4 °F 49% 30.27 in 10.0 mi East 10.4 mph - N/A   Light Drizzle
9:56 AM 66.2 °F 46.4 °F 49% 30.27 in 10.0 mi East 10.4 mph - N/A   Clear
9:58 AM 66.2 °F 46.4 °F 49% 30.28 in 10.0 mi East 10.4 mph - 0.00 in   Clear
10:58 AM 67.3 °F 48.6 °F 51% 30.28 in 10.0 mi ENE 8.1 mph - N/A   Clear
11:58 AM 68.4 °F 48.0 °F 48% 30.27 in 10.0 mi ESE 5.8 mph - N/A   Partly Cloudy
12:03 PM 69.8 °F 48.2 °F 46% 30.25 in 10.0 mi Variable 4.6 mph - N/A   Light Drizzle
12:13 PM 69.8 °F 48.2 °F 46% 30.25 in 10.0 mi ENE 5.8 mph - N/A   Clear
12:58 PM 72.7 °F 48.9 °F 43% 30.23 in 10.0 mi East 9.2 mph - 0.00 in   Clear
1:48 PM 73.4 °F 48.2 °F 41% 30.21 in 10.0 mi East 9.2 mph - N/A Rain Light Rain
1:57 PM 75.2 °F 50.0 °F 41% 30.21 in 10.0 mi East 9.2 mph - N/A   Clear
1:58 PM 75.2 °F 50.0 °F 41% 30.22 in 10.0 mi ESE 8.1 mph - 0.00 in   Clear
2:26 PM 73.4 °F 50.0 °F 44% 30.20 in 10.0 mi East 8.1 mph - N/A Rain Light Rain
2:36 PM 73.4 °F 50.0 °F 44% 30.20 in 10.0 mi ESE 8.1 mph - N/A   Clear
2:58 PM 74.1 °F 50.2 °F 43% 30.21 in 10.0 mi East 10.4 mph - 0.00 in   Clear
3:58 PM 72.0 °F 51.1 °F 48% 30.21 in 10.0 mi East 6.9 mph - N/A   Overcast
4:58 PM 69.8 °F 53.4 °F 56% 30.22 in 10.0 mi East 5.8 mph - N/A   Scattered Clouds
5:58 PM 67.6 °F 50.9 °F 55% 30.23 in 10.0 mi ENE 8.1 mph - N/A   Mostly Cloudy
6:58 PM 65.8 °F 50.5 °F 58% 30.23 in 10.0 mi ENE 8.1 mph - N/A   Clear
7:58 PM 65.8 °F 50.7 °F 58% 30.25 in 10.0 mi ENE 6.9 mph - N/A   Partly Cloudy
8:58 PM 64.6 °F 50.4 °F 60% 30.25 in 10.0 mi East 10.4 mph - N/A   Partly Cloudy
9:58 PM 64.2 °F 50.5 °F 61% 30.25 in 10.0 mi East 10.4 mph - N/A   Partly Cloudy
10:58 PM 63.0 °F 50.4 °F 63% 30.25 in 10.0 mi East 15.0 mph - N/A   Partly Cloudy
11:58 PM 62.4 °F 50.4 °F 65% 30.23 in 10.0 mi East 15.0 mph 23.0 mph N/A   Clear